#timestamp,LO_Frequency,Hit 
1498492815.5,286047009.3,N
1498492835.4,286047009.9,N
1498492855.2,286047009.6,N
1498492875.1,286047009.7,N
1498492876.0,286047009.7,N
1498492895.8,286047009.5,N
1498492915.6,286047010.0,N
1498492935.5,286047009.5,N
1498492955.3,286047010.7,N
1498492975.1,286047009.9,N
1498492995.9,286047010.5,N
1498493015.7,286047010.4,N
1498493035.6,286047008.4,N
1498493055.4,286047008.2,N
1498493075.2,286047007.8,N
1498493095.1,286047007.8,N
1498493096.0,286047007.8,N
1498493115.8,286047008.3,N
1498493135.7,286047008.7,N
1498493155.5,286047006.1,N
1498493175.3,286047006.9,N
1498493195.2,286047008.3,N
1498493215.9,286047010.1,N
1498493235.7,286047010.2,N
1498493255.6,286047010.2,N
1498493275.4,286047009.7,N
1498493295.3,286047010.0,N
1498493315.1,286047008.1,N
1498493316.0,286047008.1,N
1498493335.8,286047012.2,N
1498493355.7,286047012.3,N
1498493375.5,286047012.4,N
1498493395.3,286047009.9,N
1498493415.2,286047011.9,N
1498493435.0,286047011.9,N
1498493435.9,286047011.9,N
1498493455.8,286047012.1,N
1498493475.6,286047009.6,N
1498493495.4,286047010.2,N
1498493515.3,286047010.0,N
1498493535.1,286047012.1,N
1498493555.8,286047011.6,N
1498493575.7,286047011.7,N
1498493595.5,286047011.5,N
1498493615.4,286047012.3,N
1498493635.2,286047011.3,N
1498493655.0,286047011.1,N
1498493655.9,286047011.1,N
1498493675.8,286047011.5,N
1498493695.6,286047012.3,N
1498493715.5,286047011.7,N
1498493735.3,286047012.2,N
1498493755.1,286047012.2,N
1498493775.9,286047011.6,N
1498493795.7,286047012.3,N
1498493815.5,286047009.9,N
1498493835.4,286047009.6,N
1498493855.2,286047009.4,N
1498493875.1,286047009.6,N
1498493876.0,286047009.6,N
1498493895.8,286047012.3,N
1498493915.6,286047011.6,N
1498493935.5,286047011.5,N
1498493955.3,286047012.1,N
1498493975.1,286047012.3,N
1498493995.9,286047012.3,N
1498494015.7,286047009.3,N
1498494035.6,286047010.0,N
1498494055.4,286047009.4,N
1498494075.2,286047010.3,N
1498494095.1,286047009.8,N
1498494096.0,286047009.8,N
1498494115.8,286047012.0,N
1498494135.6,286047012.4,N
1498494155.5,286047013.9,N
1498494175.3,286047011.3,N
1498494195.2,286047012.4,N
1498494215.9,286047011.8,N
1498494235.7,286047011.8,N
1498494255.6,286047012.0,N
1498494275.4,286047011.5,N
1498494295.3,286047011.8,N
1498494315.1,286047011.1,N
1498494316.0,286047011.1,N
1498494335.8,286047011.5,N
1498494355.7,286047011.1,N
1498494375.5,286047011.4,N
1498494395.3,286047011.4,N
1498494415.2,286047012.0,N
1498494435.0,286047011.5,N
1498494435.9,286047011.5,N
1498494455.8,286047009.5,N
1498494475.6,286047011.9,N
1498494495.4,286047012.1,N
1498494515.3,286047011.6,N
1498494535.1,286047011.5,N
1498494555.8,286047013.6,N
1498494575.7,286047011.0,N
1498494595.5,286047009.7,N
1498494615.4,286047012.2,N
1498494635.2,286047012.1,N
1498494655.0,286047013.1,N
1498494655.9,286047013.1,N
1498494675.8,286047012.3,N
1498494695.6,286047011.5,N
1498494715.4,286047009.7,N
1498494735.3,286047010.1,N
1498494755.1,286047013.9,N
1498494775.9,286047011.7,N
1498494795.7,286047012.4,N
1498494815.5,286047011.7,N
1498494835.4,286047012.1,N
1498494855.2,286047012.3,N
1498494875.1,286047012.3,N
1498494876.0,286047012.3,N
1498494895.8,286047011.7,N
1498494915.6,286047011.9,N
1498494935.5,286047011.4,N
1498494955.3,286047009.4,N
1498494975.1,286047012.3,N
1498494995.9,286047012.0,N
1498495015.7,286047009.4,N
1498495035.6,286047012.0,N
1498495055.4,286047009.3,N
1498495075.2,286047011.9,N
1498495095.1,286047012.2,N
1498495096.0,286047012.2,N
1498495115.8,286047011.9,N
1498495135.6,286047011.3,N
1498495155.5,286047011.4,N
1498495175.3,286047011.2,N
1498495195.2,286047011.0,N
1498495215.9,286047011.0,N
1498495235.7,286047011.5,N
1498495255.6,286047011.2,N
1498495275.4,286047011.1,N
1498495295.3,286047011.1,N
1498495315.1,286047012.1,N
1498495316.0,286047012.1,N
1498495335.8,286047012.0,N
1498495355.7,286047011.0,N
1498495375.5,286047011.9,N
1498495395.3,286047011.1,N
1498495415.2,286047011.6,N
1498495435.0,286047011.6,N
1498495435.9,286047011.6,N
1498495455.8,286047012.2,N
1498495475.6,286047012.0,N
1498495495.4,286047009.7,N
1498495515.3,286047010.2,N
1498495535.1,286047011.7,N
1498495555.8,286047011.4,N
1498495575.7,286047011.8,N
1498495595.5,286047011.3,N
1498495615.4,286047011.3,N
1498495635.2,286047011.4,N
1498495655.0,286047011.2,N
1498495655.9,286047011.2,N
1498495675.8,286047011.6,N
1498495695.6,286047011.1,N
1498495715.4,286047012.4,N
1498495735.3,286047010.0,N
1498495755.1,286047009.4,N
1498495775.9,286047010.6,N
1498495795.7,286047012.3,N
1498495815.5,286047011.6,N
1498495835.4,286047012.1,N
1498495855.2,286047011.7,N
1498495875.0,286047012.1,N
1498495875.9,286047012.1,N
1498495895.8,286047011.9,N
1498495915.6,286047009.8,N
1498495935.5,286047010.8,N
1498495955.3,286047010.7,N
1498495975.1,286047010.1,N
1498495995.9,286047009.7,N
1498496015.7,286047011.9,N
1498496035.5,286047011.9,N
1498496055.4,286047011.1,N
1498496075.2,286047011.6,N
1498496095.1,286047011.2,N
1498496096.0,286047011.2,N
1498496115.8,286047012.2,N
1498496135.6,286047012.2,N
1498496155.5,286047011.4,N
1498496175.3,286047012.2,N
1498496195.2,286047011.5,N
1498496215.9,286047011.4,N
1498496235.7,286047012.0,N
1498496255.6,286047011.6,N
1498496275.4,286047011.6,N
1498496295.2,286047010.9,N
1498496315.1,286047011.4,N
1498496316.0,286047011.4,N
1498496335.8,286047011.0,N
1498496355.7,286047012.3,N
1498496375.5,286047011.2,N
1498496395.3,286047011.8,N
